Regional Weather Roundup
Issued by NWS

Home | Current Version | Previous Version | Text Only | Print | Product List | Glossary Off
Versions: 1 2 3 4 5 6 7 8 9 10 11 12 13 14 15 16 17 18 19 20 21 22 23 24 25 26 27 28 29 30 31 32 33 34 35 36 37 38 39 40 41 42 43 44 45 46 47 48 49 50

190
ASUS44 KLIX 300510
RWRLA
LOUISIANA WEATHER ROUNDUP
NATIONAL WEATHER SERVICE NEW ORLEANS LA
1200 AM CDT TUE SEP 30 2014

NOTE: "FAIR" INDICATES FEW OR NO CLOUDS BELOW 12,000 FEET WITH NO
      SIGNIFICANT WEATHER AND/OR OBSTRUCTIONS TO VISIBILITY.
      SKY/WX - SKY CONDITION AND SIGNIFICANT WEATHER.
      TMP - AIR TEMPERATURE.    DP   - DEWPOINT TEMPERATURE.
      RH  - RELATIVE HUMIDITY.  PRES - PRESSURE.
      HX  - HEAT INDEX.         WCI  - WIND CHILL INDEX.

*  THESE STATIONS ARE NOT NWS OR FAA STATIONS AND ARE NOT UNDER
   NWS QUALITY CONTROL.

LAZ040-048-061>063-065-066-069-300600-
SOUTHEAST LOUISIANA

CITY           SKY/WX    TMP DP  RH WIND       PRES   REMARKS
N.O. AUDUBON     N/A     76  73  91 MISG        N/A
N.O. INTL ARPT PTCLDY    75  71  87 CALM      29.87F
N.O. LAKEFRONT CLEAR     79  75  87 NE3       29.88F
N.O. DOWNTOWN* FAIR      79  70  73 CALM      29.88F
SLIDELL        CLEAR     72  69  90 CALM      29.87F
BATON ROUGE    LGT RAIN  72  70  93 CALM      29.88F
BOOTHVILLE     CLEAR     78  74  87 NE3       29.87F
BELLE CHASSE   CLEAR     73  69  87 CALM      29.87F
BOGALUSA*        N/A     73  69  88 CALM      29.90F
GALLIANO*      NOT AVBL
NEW ROADS*     FAIR      72  72  99 CALM      29.89S
GONZALES*      FAIR      72  72 100 CALM      29.87F FOG
HAMMOND*       CLEAR     73  70  88 CALM      29.90S
HOUMA*         CLEAR    N/A N/A N/A CALM      29.87F
PORT FOURCHON* CLEAR     79  73  83 NE6       29.90F

$$

LAZ041-044-053-054-300600-
SOUTHWEST LOUISIANA

CITY           SKY/WX    TMP DP  RH WIND       PRES   REMARKS
LAKE CHARLES   CLEAR     75  72  90 NE6       29.87F
LAFAYETTE      CLEAR     73  73 100 CALM      29.88F
PATTERSON      CLEAR     73  72  94 CALM      29.90F
SALT POINT       N/A     77  74  90 CALM      29.87F
NEW IBERIA     CLEAR     75  72  90 CALM      29.88F
CHENAULT AIRPK CLEAR     75  72  91 NE3       29.88F

$$

LAZ027-028-300600-
CENTRAL LOUISIANA

CITY           SKY/WX    TMP DP  RH WIND       PRES   REMARKS
FORT POLK      MOCLDY    73  70  91 E2        29.89F
ALEXANDRIA INT CLEAR     72  69  90 SW3       29.88F
ALEXANDRIA     CLEAR     72  70  93 CALM      29.89F

$$

LAZ001-002-300600-
NORTHWEST LOUISIANA

CITY           SKY/WX    TMP DP  RH WIND       PRES   REMARKS
SHREVEPORT     PTCLDY    73  65  75 E3        29.90F
BARKSDALE AFB  MOCLDY    73  65  75 CALM      29.91S
DTN SHREVEPORT MOCLDY    73  65  75 CALM      29.90F

$$

LAZ014-016-300600-
NORTHEAST LOUISIANA

CITY           SKY/WX    TMP DP  RH WIND       PRES   REMARKS
MONROE         CLEAR     67  64  90 E3        29.91F
TALLULAH       CLEAR     68  65  90 NW3       29.91F

$$




USA.gov is the U.S. government's official web portal to all federal, state and local government web resources and services.